Location: Bruderhein
(53.8035°N, 112.9265°W)
Time: 16:25:03
(UTC+00:00)

UWE-3 - Visible Passes

Search period start: 20 March 2023 00:00
Search period end: 30 March 2023 00:00
Orbit: 580 x 670 km, 97.7° (Epoch: 20 March)

Date Brightness Start Highest point End Pass type
(mag) Time Alt. Az. Time Alt. Az. Time Alt. Az.
20 Mar ? 09:08:07 10° NE 09:10:16 13° E 09:10:32 13° E visible
20 Mar ? 10:42:38 10° NNE 10:47:16 81° ESE 10:47:49 68° S visible
20 Mar ? 12:19:45 10° NNW 12:22:57 19° NW 12:25:05 14° W visible
21 Mar ? 09:26:08 10° NE 09:29:23 19° E 09:29:43 19° E visible
21 Mar ? 11:01:31 10° N 11:06:07 71° WNW 11:06:59 55° SW visible
21 Mar ? 12:39:10 10° NNW 12:41:33 14° NW 12:43:55 10° W visible
22 Mar ? 09:44:33 10° NE 09:48:26 26° E 09:48:52 26° ESE visible
22 Mar ? 11:20:28 10° N 11:24:54 49° WNW 11:26:10 38° WSW visible
23 Mar ? 10:03:08 10° NNE 10:07:25 37° E 10:08:02 35° ESE visible
23 Mar ? 11:39:27 10° N 11:43:37 35° WNW 11:45:19 26° WSW visible
24 Mar ? 10:21:50 10° NNE 10:26:20 54° E 10:27:11 46° SE visible
24 Mar ? 11:58:31 10° N 12:02:17 26° WNW 12:04:27 18° W visible
25 Mar ? 09:06:14 10° ENE 09:08:09 12° E 09:09:02 12° E visible
25 Mar ? 10:40:36 10° NNE 10:45:12 79° ESE 10:46:19 51° S visible
25 Mar ? 12:17:41 10° NNW 12:20:53 19° NW 12:23:35 12° W visible
26 Mar ? 09:24:08 10° NE 09:27:13 18° E 09:28:09 17° ESE visible
26 Mar ? 10:59:26 10° N 11:04:00 73° WNW 11:05:26 42° SW visible
26 Mar ? 12:37:02 10° NNW 12:39:26 14° NW 12:41:50 10° W visible
27 Mar ? 09:42:27 10° NE 09:46:14 25° E 09:47:16 23° ESE visible
27 Mar ? 11:18:18 10° N 11:22:44 50° WNW 11:24:32 31° SW visible
28 Mar ? 10:00:59 10° NNE 10:05:10 36° E 10:06:22 30° SE visible
28 Mar ? 11:37:15 10° N 11:41:24 36° WNW 11:43:38 22° WSW visible
29 Mar ? 10:19:36 10° NNE 10:24:03 52° E 10:25:27 37° SSE visible
29 Mar ? 11:56:16 10° N 12:00:01 26° WNW 12:02:42 15° WSW visible
